EAG5508 MPTO-MTPP

Flight info

Callsign EAG5508
Flight time 1h 42m
Altitude 41000
Route EGETA DCT AGUJA UM597 LIDOL UG444 APLED DCT MESLI MESLI1C
Aircraft A359/H-SDE2E3GHIJ3J4J5LM1ORWXY/LB1D1

Departure

Time 2026-05-04 20:42
Airport Tocumen International Airport (MPTO)

Arrival

Time 2026-05-04 22:24
Airport Toussaint Louverture International Airport (MTPP)
Time Latitude Longitude Altitude Speed Heading
2026-05-04 20:09 9.06709 -79.38557 36 ft 0 kts 300°
2026-05-04 20:33 9.06706 -79.38553 36 ft 3 kts 300°
2026-05-04 20:34 9.06692 -79.38529 35 ft 4 kts 302°
2026-05-04 20:34 9.06678 -79.38506 34 ft 4 kts 302°
2026-05-04 20:34 9.06664 -79.38485 32 ft 4 kts 313°
2026-05-04 20:34 9.06643 -79.38470 33 ft 4 kts 344°
2026-05-04 20:35 9.06621 -79.38465 33 ft 1 kts 346°
2026-05-04 20:38 9.06622 -79.38465 33 ft 2 kts 346°
2026-05-04 20:38 9.06694 -79.38442 36 ft 15 kts 30°
2026-05-04 20:38 9.06795 -79.38388 36 ft 17 kts 25°
2026-05-04 20:38 9.06897 -79.38419 36 ft 17 kts 300°
2026-05-04 20:39 9.06982 -79.38448 36 ft 15 kts 25°
2026-05-04 20:39 9.07081 -79.38398 37 ft 16 kts 26°
2026-05-04 20:39 9.07168 -79.38435 37 ft 16 kts 301°
2026-05-04 20:39 9.07225 -79.38532 39 ft 16 kts 302°
2026-05-04 20:40 9.07263 -79.38632 45 ft 11 kts 284°
2026-05-04 20:40 9.07264 -79.38638 46 ft 0 kts 285°
2026-05-04 20:41 9.07268 -79.38652 43 ft 11 kts 284°
2026-05-04 20:41 9.07340 -79.38701 48 ft 11 kts 37°
2026-05-04 20:41 9.07367 -79.38681 49 ft 0 kts 32°
2026-05-04 20:41 9.07396 -79.38662 47 ft 31 kts 32°
2026-05-04 20:42 9.07849 -79.38390 49 ft 118 kts 31°
2026-05-04 20:42 9.08775 -79.37828 120 ft 184 kts 30°
2026-05-04 20:42 9.09893 -79.37110 937 ft 193 kts 35°
2026-05-04 20:42 9.10931 -79.36299 2128 ft 185 kts 38°
2026-05-04 20:43 9.11955 -79.35467 2718 ft 198 kts 38°
2026-05-04 20:43 9.13105 -79.34543 2975 ft 225 kts 38°
2026-05-04 20:43 9.14401 -79.33509 3297 ft 248 kts 38°
2026-05-04 20:43 9.15784 -79.32409 3943 ft 257 kts 38°
2026-05-04 20:44 9.17191 -79.31293 4613 ft 263 kts 38°
2026-05-04 20:44 9.18637 -79.30147 5373 ft 265 kts 38°
2026-05-04 20:44 9.20096 -79.28991 6169 ft 268 kts 38°
2026-05-04 20:44 9.21577 -79.27819 6867 ft 271 kts 38°
2026-05-04 20:45 9.23067 -79.26639 7655 ft 274 kts 39°
2026-05-04 20:45 9.24581 -79.25438 8365 ft 279 kts 39°
2026-05-04 20:45 9.26118 -79.24220 9180 ft 281 kts 40°
2026-05-04 20:45 9.27665 -79.22994 9976 ft 285 kts 39°
2026-05-04 20:46 9.28709 -79.22166 10333 ft 293 kts 40°
2026-05-04 20:46 9.30928 -79.20405 10742 ft 319 kts 40°
2026-05-04 20:46 9.32722 -79.18983 11013 ft 337 kts 39°
2026-05-04 20:46 9.34610 -79.17487 11279 ft 352 kts 39°
2026-05-04 20:47 9.35902 -79.16464 11526 ft 359 kts 39°
2026-05-04 20:47 9.38562 -79.14357 11953 ft 365 kts 39°
2026-05-04 20:47 9.39893 -79.13303 12008 ft 366 kts 39°
2026-05-04 20:47 9.41904 -79.11710 12012 ft 367 kts 39°
2026-05-04 20:48 9.43915 -79.10116 12011 ft 367 kts 39°
2026-05-04 20:48 9.45927 -79.08516 12011 ft 367 kts 40°
2026-05-04 20:48 9.48434 -79.06220 12069 ft 368 kts 46°
2026-05-04 20:48 9.50224 -79.04348 12542 ft 372 kts 48°
2026-05-04 20:49 9.51416 -79.03047 12947 ft 373 kts 48°
2026-05-04 20:49 9.53173 -79.01097 13543 ft 375 kts 49°
2026-05-04 20:49 9.54910 -78.99160 14055 ft 378 kts 49°
2026-05-04 20:49 9.56692 -78.97184 14550 ft 381 kts 48°
2026-05-04 20:50 9.58489 -78.95203 15046 ft 384 kts 48°
2026-05-04 20:50 9.60309 -78.93208 15542 ft 387 kts 48°
2026-05-04 20:50 9.62744 -78.90549 16191 ft 391 kts 48°
2026-05-04 20:50 9.63995 -78.89186 16526 ft 393 kts 48°
2026-05-04 20:51 9.65865 -78.87149 17019 ft 396 kts 48°
2026-05-04 20:51 9.67746 -78.85100 17495 ft 399 kts 48°
2026-05-04 20:51 9.69622 -78.83056 17991 ft 402 kts 48°
2026-05-04 20:51 9.71531 -78.80974 18443 ft 405 kts 48°
2026-05-04 20:52 9.73456 -78.78874 18850 ft 408 kts 48°
2026-05-04 20:52 9.75395 -78.76759 19286 ft 411 kts 48°
2026-05-04 20:52 9.77346 -78.74630 19702 ft 414 kts 48°
2026-05-04 20:52 9.79315 -78.72480 20136 ft 417 kts 47°
2026-05-04 20:53 9.81294 -78.70320 20553 ft 420 kts 47°
2026-05-04 20:53 9.83285 -78.68146 20998 ft 422 kts 47°
2026-05-04 20:53 9.85268 -78.65980 21359 ft 427 kts 47°
2026-05-04 20:53 9.87298 -78.63763 21774 ft 430 kts 47°
2026-05-04 20:54 9.89346 -78.61526 22154 ft 434 kts 47°
2026-05-04 20:54 9.91404 -78.59276 22590 ft 437 kts 47°
2026-05-04 20:54 9.93483 -78.57003 22989 ft 441 kts 47°
2026-05-04 20:54 9.95573 -78.54719 23385 ft 444 kts 47°
2026-05-04 20:55 9.97686 -78.52409 23721 ft 448 kts 47°
2026-05-04 20:55 9.99807 -78.50089 24074 ft 450 kts 47°
2026-05-04 20:55 10.01936 -78.47759 24478 ft 450 kts 46°
2026-05-04 20:55 10.04040 -78.45457 24895 ft 452 kts 46°
2026-05-04 20:56 10.06184 -78.43110 25300 ft 455 kts 46°
2026-05-04 20:56 10.08346 -78.40744 25685 ft 458 kts 46°
2026-05-04 20:56 10.10516 -78.38368 26080 ft 461 kts 46°
2026-05-04 20:56 10.12704 -78.35972 26536 ft 464 kts 46°
2026-05-04 20:57 10.14906 -78.33561 26944 ft 467 kts 46°
2026-05-04 20:57 10.17123 -78.31132 27370 ft 470 kts 46°
2026-05-04 20:57 10.19351 -78.28689 27787 ft 474 kts 46°
2026-05-04 20:57 10.21600 -78.26225 28201 ft 477 kts 46°
2026-05-04 20:58 10.23830 -78.23780 28616 ft 480 kts 46°
2026-05-04 20:58 10.26104 -78.21286 29019 ft 483 kts 46°
2026-05-04 20:58 10.28394 -78.18775 29421 ft 486 kts 46°
2026-05-04 20:58 10.30696 -78.16248 29806 ft 489 kts 46°
2026-05-04 20:59 10.33015 -78.13704 30134 ft 492 kts 46°
2026-05-04 20:59 10.35346 -78.11146 30453 ft 495 kts 46°
2026-05-04 20:59 10.37691 -78.08571 30774 ft 497 kts 46°
2026-05-04 20:59 10.40040 -78.05991 31082 ft 499 kts 46°
2026-05-04 21:00 10.42375 -78.03426 31367 ft 502 kts 46°
2026-05-04 21:00 10.44750 -78.00816 31659 ft 504 kts 46°
2026-05-04 21:00 10.47134 -77.98196 31935 ft 506 kts 46°
2026-05-04 21:00 10.49528 -77.95564 32193 ft 508 kts 46°
2026-05-04 21:01 10.51933 -77.92920 32463 ft 510 kts 46°
2026-05-04 21:01 10.54342 -77.90271 32852 ft 509 kts 46°
2026-05-04 21:01 10.56742 -77.87630 33248 ft 508 kts 46°
2026-05-04 21:01 10.59137 -77.84995 33645 ft 507 kts 46°
2026-05-04 21:02 10.61528 -77.82363 33989 ft 507 kts 46°
2026-05-04 21:02 10.63916 -77.79734 34271 ft 507 kts 47°
2026-05-04 21:02 10.66277 -77.77134 34553 ft 507 kts 47°
2026-05-04 21:02 10.68669 -77.74500 34814 ft 507 kts 47°
2026-05-04 21:03 10.71059 -77.71866 35095 ft 507 kts 47°
2026-05-04 21:03 10.73453 -77.69227 35376 ft 507 kts 47°
2026-05-04 21:03 10.75848 -77.66588 35624 ft 508 kts 47°
2026-05-04 21:03 10.78240 -77.63951 35889 ft 508 kts 48°
2026-05-04 21:04 10.80634 -77.61311 36172 ft 507 kts 48°
2026-05-04 21:04 10.83027 -77.58671 36397 ft 508 kts 48°
2026-05-04 21:04 10.85392 -77.56062 36667 ft 508 kts 48°
2026-05-04 21:04 10.87787 -77.53419 36917 ft 508 kts 48°
2026-05-04 21:05 10.90176 -77.50781 37210 ft 507 kts 48°
2026-05-04 21:05 10.92564 -77.48145 37511 ft 506 kts 48°
2026-05-04 21:05 10.94943 -77.45518 37783 ft 505 kts 48°
2026-05-04 21:05 10.97322 -77.42890 38030 ft 505 kts 49°
2026-05-04 21:06 10.99705 -77.40263 38306 ft 504 kts 48°
2026-05-04 21:06 11.02107 -77.37670 38548 ft 503 kts 47°
2026-05-04 21:06 11.04496 -77.35131 38733 ft 503 kts 47°
2026-05-04 21:06 11.06963 -77.32523 38829 ft 506 kts 47°
2026-05-04 21:07 11.09375 -77.29971 38934 ft 507 kts 47°
2026-05-04 21:07 11.11816 -77.27383 39129 ft 506 kts 47°
2026-05-04 21:07 11.14247 -77.24798 39323 ft 505 kts 47°
2026-05-04 21:07 11.16678 -77.22208 39493 ft 505 kts 47°
2026-05-04 21:08 11.19099 -77.19624 39657 ft 505 kts 47°
2026-05-04 21:08 11.21524 -77.17035 39833 ft 505 kts 47°
2026-05-04 21:08 11.23947 -77.14446 39981 ft 504 kts 47°
2026-05-04 21:08 11.26364 -77.11862 40155 ft 504 kts 47°
2026-05-04 21:09 11.28751 -77.09311 40285 ft 504 kts 47°
2026-05-04 21:09 11.31169 -77.06725 40417 ft 504 kts 47°
2026-05-04 21:09 11.33586 -77.04142 40573 ft 504 kts 47°
2026-05-04 21:09 11.36003 -77.01556 40693 ft 503 kts 47°
2026-05-04 21:10 11.38417 -76.98979 40840 ft 503 kts 46°
2026-05-04 21:10 11.40884 -76.96433 40863 ft 504 kts 45°
2026-05-04 21:10 11.45904 -76.91430 40862 ft 505 kts 44°
2026-05-04 21:11 11.50908 -76.86463 40864 ft 506 kts 44°
2026-05-04 21:11 11.55928 -76.81438 40861 ft 506 kts 45°
2026-05-04 21:12 11.60938 -76.76398 40861 ft 506 kts 45°
2026-05-04 21:12 11.65943 -76.71355 40863 ft 506 kts 45°
2026-05-04 21:13 11.70918 -76.66343 40866 ft 506 kts 45°
2026-05-04 21:13 11.75925 -76.61295 40865 ft 506 kts 45°
2026-05-04 21:14 11.80939 -76.56239 40868 ft 507 kts 45°
2026-05-04 21:14 11.85958 -76.51175 40870 ft 507 kts 45°
2026-05-04 21:15 11.90968 -76.46117 40869 ft 507 kts 45°
2026-05-04 21:15 11.95952 -76.41082 40866 ft 507 kts 45°
2026-05-04 21:16 12.00963 -76.36017 40871 ft 507 kts 45°
2026-05-04 21:16 12.05976 -76.30948 40873 ft 507 kts 45°
2026-05-04 21:17 12.10990 -76.25874 40868 ft 507 kts 45°
2026-05-04 21:17 12.15968 -76.20835 40870 ft 508 kts 45°
2026-05-04 21:18 12.20982 -76.15757 40864 ft 507 kts 45°
2026-05-04 21:18 12.25995 -76.10676 40873 ft 507 kts 45°
2026-05-04 21:19 12.31010 -76.05598 40870 ft 507 kts 45°
2026-05-04 21:19 12.35988 -76.00545 40876 ft 507 kts 45°
2026-05-04 21:20 12.40998 -75.95457 40881 ft 508 kts 45°
2026-05-04 21:20 12.46006 -75.90369 40877 ft 507 kts 45°
2026-05-04 21:21 12.51014 -75.85279 40876 ft 507 kts 45°
2026-05-04 21:21 12.56020 -75.80190 40884 ft 507 kts 45°
2026-05-04 21:22 12.60993 -75.75130 40879 ft 507 kts 45°
2026-05-04 21:22 12.65993 -75.70040 40879 ft 507 kts 45°
2026-05-04 21:23 12.70995 -75.64945 40882 ft 507 kts 45°
2026-05-04 21:23 12.75995 -75.59849 40883 ft 507 kts 44°
2026-05-04 21:24 12.80997 -75.54749 40890 ft 507 kts 44°
2026-05-04 21:24 12.85963 -75.49682 40888 ft 507 kts 44°
2026-05-04 21:25 12.90960 -75.44580 40889 ft 507 kts 44°
2026-05-04 21:25 12.95958 -75.39474 40891 ft 507 kts 44°
2026-05-04 21:26 13.00949 -75.34358 40891 ft 507 kts 45°
2026-05-04 21:26 13.05902 -75.29275 40889 ft 507 kts 45°
2026-05-04 21:27 13.10891 -75.24153 40888 ft 507 kts 44°
2026-05-04 21:27 13.15880 -75.19032 40896 ft 507 kts 44°
2026-05-04 21:28 13.20872 -75.13913 40900 ft 507 kts 44°
2026-05-04 21:28 13.25827 -75.08831 40898 ft 507 kts 44°
2026-05-04 21:29 13.30817 -75.03705 40895 ft 507 kts 44°
2026-05-04 21:29 13.35806 -74.98579 40904 ft 507 kts 44°
2026-05-04 21:30 13.40793 -74.93453 40905 ft 507 kts 44°
2026-05-04 21:30 13.45742 -74.88363 40909 ft 507 kts 44°
2026-05-04 21:31 13.53209 -74.80678 40907 ft 506 kts 44°
2026-05-04 21:32 13.58182 -74.75556 40907 ft 506 kts 44°
2026-05-04 21:32 13.63159 -74.70426 40911 ft 506 kts 44°
2026-05-04 21:33 13.68095 -74.65336 40906 ft 506 kts 44°
2026-05-04 21:33 13.73068 -74.60204 40913 ft 506 kts 44°
2026-05-04 21:34 13.78035 -74.55075 40901 ft 506 kts 44°
2026-05-04 21:34 13.82998 -74.49946 40908 ft 506 kts 44°
2026-05-04 21:35 13.87927 -74.44850 40913 ft 506 kts 44°
2026-05-04 21:35 13.92887 -74.39718 40911 ft 505 kts 44°
2026-05-04 21:36 13.97844 -74.34587 40911 ft 505 kts 44°
2026-05-04 21:36 14.02805 -74.29447 40913 ft 506 kts 44°
2026-05-04 21:37 14.07738 -74.24333 40911 ft 507 kts 44°
2026-05-04 21:37 14.12706 -74.19180 40913 ft 507 kts 44°
2026-05-04 21:38 14.17674 -74.14026 40918 ft 507 kts 44°
2026-05-04 21:38 14.22641 -74.08875 40913 ft 507 kts 44°
2026-05-04 21:39 14.27570 -74.03753 40914 ft 507 kts 44°
2026-05-04 21:39 14.32534 -73.98597 40914 ft 507 kts 44°
2026-05-04 21:40 14.37520 -73.93447 40920 ft 507 kts 44°
2026-05-04 21:40 14.42502 -73.88302 40920 ft 507 kts 44°
2026-05-04 21:41 14.47448 -73.83189 40920 ft 507 kts 44°
2026-05-04 21:41 14.52423 -73.78042 40922 ft 506 kts 44°
2026-05-04 21:42 14.57398 -73.72891 40928 ft 506 kts 44°
2026-05-04 21:42 14.62370 -73.67739 40925 ft 507 kts 44°
2026-05-04 21:43 14.67310 -73.62617 40927 ft 507 kts 44°
2026-05-04 21:43 14.72280 -73.57460 40929 ft 507 kts 44°
2026-05-04 21:44 14.77250 -73.52300 40934 ft 506 kts 44°
2026-05-04 21:44 14.82221 -73.47135 40929 ft 506 kts 44°
2026-05-04 21:45 14.87154 -73.42008 40933 ft 506 kts 44°
2026-05-04 21:45 14.92246 -73.36979 40934 ft 506 kts 41°
2026-05-04 21:46 14.97433 -73.32059 40931 ft 506 kts 41°
2026-05-04 21:46 15.02608 -73.27122 40940 ft 506 kts 41°
2026-05-04 21:47 15.08054 -73.22640 40932 ft 502 kts 28°
2026-05-04 21:47 15.14446 -73.19884 40935 ft 497 kts 14°
2026-05-04 21:48 15.21105 -73.17923 40933 ft 497 kts 12°
2026-05-04 21:48 15.27794 -73.16088 40940 ft 497 kts 12°
2026-05-04 21:49 15.34436 -73.14249 40943 ft 497 kts 12°
2026-05-04 21:49 15.41118 -73.12368 40947 ft 497 kts 12°
2026-05-04 21:50 15.47789 -73.10479 40944 ft 497 kts 12°
2026-05-04 21:50 15.54461 -73.08587 40950 ft 497 kts 12°
2026-05-04 21:51 15.61138 -73.06701 40949 ft 497 kts 12°
2026-05-04 21:51 15.67767 -73.04821 40955 ft 497 kts 12°
2026-05-04 21:52 15.74439 -73.02927 40956 ft 497 kts 12°
2026-05-04 21:52 15.81116 -73.01033 40956 ft 497 kts 12°
2026-05-04 21:53 15.87790 -72.99138 40949 ft 497 kts 12°
2026-05-04 21:53 15.94423 -72.97254 40962 ft 497 kts 12°
2026-05-04 21:54 16.01096 -72.95358 40967 ft 497 kts 12°
2026-05-04 21:54 16.07764 -72.93461 40962 ft 497 kts 12°
2026-05-04 21:55 16.14428 -72.91564 40972 ft 496 kts 12°
2026-05-04 21:55 16.21048 -72.89679 40964 ft 496 kts 12°
2026-05-04 21:56 16.27707 -72.87782 40963 ft 496 kts 12°
2026-05-04 21:56 16.34370 -72.85875 40975 ft 496 kts 12°
2026-05-04 21:57 16.41029 -72.83964 40971 ft 496 kts 12°
2026-05-04 21:57 16.47645 -72.82065 40979 ft 496 kts 12°
2026-05-04 21:58 16.54305 -72.80154 40976 ft 496 kts 12°
2026-05-04 21:58 16.60967 -72.78241 40982 ft 496 kts 12°
2026-05-04 21:59 16.67629 -72.76327 40988 ft 497 kts 12°
2026-05-04 21:59 16.74288 -72.74412 40977 ft 496 kts 12°
2026-05-04 21:59 16.77575 -72.73466 40800 ft 497 kts 12°
2026-05-04 22:00 16.80906 -72.72507 40555 ft 497 kts 12°
2026-05-04 22:00 16.84244 -72.71547 40321 ft 498 kts 12°
2026-05-04 22:00 16.87584 -72.70585 40073 ft 499 kts 12°
2026-05-04 22:00 16.90935 -72.69620 39759 ft 499 kts 12°
2026-05-04 22:01 16.94280 -72.68655 39103 ft 499 kts 12°
2026-05-04 22:01 16.97629 -72.67690 38426 ft 500 kts 12°
2026-05-04 22:01 17.01008 -72.66900 37699 ft 497 kts
2026-05-04 22:01 17.04409 -72.66279 37008 ft 496 kts
2026-05-04 22:02 17.07767 -72.65712 36349 ft 495 kts
2026-05-04 22:02 17.11167 -72.65162 35676 ft 495 kts
2026-05-04 22:02 17.14571 -72.64622 34974 ft 495 kts
2026-05-04 22:02 17.17984 -72.64082 34234 ft 497 kts
2026-05-04 22:03 17.21418 -72.63536 33355 ft 500 kts
2026-05-04 22:03 17.24864 -72.62985 32514 ft 502 kts
2026-05-04 22:03 17.28325 -72.62428 31662 ft 504 kts
2026-05-04 22:03 17.31583 -72.61901 30846 ft 506 kts
2026-05-04 22:04 17.35022 -72.61344 29928 ft 509 kts
2026-05-04 22:04 17.38530 -72.60774 29059 ft 508 kts
2026-05-04 22:04 17.42005 -72.60209 28372 ft 503 kts
2026-05-04 22:04 17.45451 -72.59648 27714 ft 498 kts
2026-05-04 22:05 17.48859 -72.59093 27050 ft 494 kts
2026-05-04 22:05 17.52242 -72.58543 26396 ft 489 kts
2026-05-04 22:05 17.55589 -72.57999 25743 ft 485 kts
2026-05-04 22:05 17.58904 -72.57461 25102 ft 480 kts
2026-05-04 22:06 17.62197 -72.56926 24469 ft 476 kts
2026-05-04 22:06 17.65411 -72.56404 23854 ft 472 kts
2026-05-04 22:06 17.68641 -72.55879 23149 ft 468 kts
2026-05-04 22:06 17.71841 -72.55359 22491 ft 462 kts
2026-05-04 22:07 17.74990 -72.54846 21865 ft 455 kts
2026-05-04 22:07 17.78103 -72.54339 21248 ft 450 kts
2026-05-04 22:07 17.81173 -72.53839 20640 ft 444 kts
2026-05-04 22:07 17.84211 -72.53344 20026 ft 440 kts
2026-05-04 22:08 17.87219 -72.52851 19411 ft 436 kts
2026-05-04 22:08 17.90104 -72.52057 18775 ft 435 kts 20°
2026-05-04 22:08 17.92797 -72.50615 18064 ft 435 kts 31°
2026-05-04 22:08 17.95324 -72.48894 17369 ft 432 kts 33°
2026-05-04 22:09 18.00439 -72.45247 16095 ft 422 kts 34°
2026-05-04 22:09 18.02852 -72.43513 15491 ft 418 kts 34°
2026-05-04 22:09 18.05243 -72.41794 14860 ft 415 kts 34°
2026-05-04 22:10 18.07584 -72.40108 14247 ft 412 kts 35°
2026-05-04 22:10 18.10008 -72.38529 13586 ft 410 kts 26°
2026-05-04 22:10 18.12715 -72.37668 12933 ft 406 kts
2026-05-04 22:10 18.15501 -72.37812 12290 ft 401 kts 347°
2026-05-04 22:11 18.18036 -72.38900 11704 ft 395 kts 327°
2026-05-04 22:11 18.20165 -72.40660 11495 ft 378 kts 321°
2026-05-04 22:11 18.22218 -72.42288 11392 ft 361 kts 323°
2026-05-04 22:11 18.24211 -72.43794 11273 ft 345 kts 323°
2026-05-04 22:12 18.26128 -72.45231 11152 ft 332 kts 324°
2026-05-04 22:12 18.27975 -72.46613 10994 ft 320 kts 324°
2026-05-04 22:12 18.29729 -72.47924 10836 ft 308 kts 324°
2026-05-04 22:12 18.31443 -72.49205 10666 ft 297 kts 324°
2026-05-04 22:13 18.33120 -72.50458 10327 ft 295 kts 324°
2026-05-04 22:13 18.34781 -72.51700 10008 ft 291 kts 324°
2026-05-04 22:13 18.36447 -72.52946 9697 ft 299 kts 324°
2026-05-04 22:13 18.38157 -72.54224 9558 ft 304 kts 324°
2026-05-04 22:14 18.39868 -72.55503 9296 ft 300 kts 324°
2026-05-04 22:14 18.41570 -72.56777 8852 ft 299 kts 325°
2026-05-04 22:14 18.43262 -72.58043 8448 ft 297 kts 325°
2026-05-04 22:14 18.44911 -72.59278 8103 ft 296 kts 325°
2026-05-04 22:15 18.46580 -72.60525 7765 ft 293 kts 326°
2026-05-04 22:15 18.48241 -72.61767 7440 ft 292 kts 326°
2026-05-04 22:15 18.49890 -72.63002 7124 ft 289 kts 326°
2026-05-04 22:15 18.51522 -72.64224 6825 ft 287 kts 326°
2026-05-04 22:16 18.53139 -72.65436 6514 ft 284 kts 326°
2026-05-04 22:16 18.54752 -72.66630 6198 ft 282 kts 328°
2026-05-04 22:16 18.56519 -72.67455 5889 ft 277 kts 351°
2026-05-04 22:16 18.58408 -72.67377 5589 ft 272 kts 18°
2026-05-04 22:17 18.60001 -72.66411 5294 ft 269 kts 45°
2026-05-04 22:17 18.61006 -72.64791 5009 ft 267 kts 71°
2026-05-04 22:17 18.61444 -72.62891 4697 ft 268 kts 72°
2026-05-04 22:17 18.62158 -72.61097 4323 ft 263 kts 78°
2026-05-04 22:18 18.62028 -72.59246 4152 ft 252 kts 110°
2026-05-04 22:18 18.61143 -72.57698 3996 ft 240 kts 125°
2026-05-04 22:18 18.60237 -72.56269 3830 ft 230 kts 122°
2026-05-04 22:18 18.59385 -72.54896 3731 ft 219 kts 123°
2026-05-04 22:19 18.58629 -72.53581 3670 ft 198 kts 117°
2026-05-04 22:19 18.58155 -72.52329 3646 ft 178 kts 110°
2026-05-04 22:19 18.57772 -72.51123 3583 ft 173 kts 108°
2026-05-04 22:19 18.57419 -72.49907 3454 ft 175 kts 107°
2026-05-04 22:20 18.57191 -72.48636 3346 ft 178 kts 96°
2026-05-04 22:20 18.57229 -72.47323 3196 ft 181 kts 87°
2026-05-04 22:20 18.57306 -72.46003 2986 ft 177 kts 88°
2026-05-04 22:20 18.57372 -72.44737 2822 ft 170 kts 89°
2026-05-04 22:21 18.57410 -72.43518 2630 ft 163 kts 92°
2026-05-04 22:21 18.57381 -72.42354 2364 ft 159 kts 93°
2026-05-04 22:21 18.57382 -72.41197 2106 ft 158 kts 89°
2026-05-04 22:21 18.57464 -72.40021 1712 ft 162 kts 87°
2026-05-04 22:22 18.57551 -72.38859 1481 ft 156 kts 88°
2026-05-04 22:22 18.57595 -72.37740 1319 ft 150 kts 91°
2026-05-04 22:22 18.57637 -72.36647 1122 ft 149 kts 91°
2026-05-04 22:22 18.57706 -72.35546 901 ft 152 kts 88°
2026-05-04 22:23 18.57802 -72.34438 706 ft 149 kts 88°
2026-05-04 22:23 18.57821 -72.33389 568 ft 142 kts 92°
2026-05-04 22:23 18.57857 -72.32384 435 ft 132 kts 91°
2026-05-04 22:23 18.57896 -72.31443 251 ft 125 kts 88°
2026-05-04 22:24 18.57940 -72.30569 115 ft 114 kts 89°
2026-05-04 22:24 18.57974 -72.29851 107 ft 67 kts 87°
2026-05-04 22:24 18.57988 -72.29574 109 ft 22 kts 86°
2026-05-04 22:24 18.57954 -72.29476 108 ft 15 kts 153°
2026-05-04 22:25 18.57848 -72.29467 106 ft 15 kts 178°
2026-05-04 22:25 18.57821 -72.29465 107 ft 0 kts 176°
2026-05-04 22:26 18.57805 -72.29464 105 ft 7 kts 176°
2026-05-04 22:26 18.57731 -72.29458 105 ft 12 kts 175°
2026-05-04 22:26 18.57687 -72.29398 105 ft 12 kts 96°
2026-05-04 22:26 18.57685 -72.29309 106 ft 13 kts 90°
2026-05-04 22:27 18.57686 -72.29245 108 ft 5 kts 87°
2026-05-04 22:27 18.57687 -72.29238 108 ft 0 kts 86°
2026-05-04 22:27 18.57687 -72.29221 109 ft 1 kts 97°
2026-05-04 22:27 18.57669 -72.29210 108 ft 5 kts 162°
2026-05-04 22:28 18.57637 -72.29205 110 ft 4 kts 172°
2026-05-04 22:28 18.57636 -72.29205 110 ft 0 kts 172°